01:56
Airports
History
Links
Donate
Help keep this website running!
PayPal
Bitcoin
This page is community maintained. The information is intended for PC simulator navigation or reference.
Always use approved charts for navigation.
PH3
Grand Valley
Grand Valley (PH3)
Laurel, Ontario, Canada
4
Lat/Lng:43° 58' 30.72" N / 80° 15' 20.52" W
43.975201 / -80.255699
Elevation:1596'ft / 486mMSL
ID / ICAO:PH3
Runways:1
Longest:08-26
Grass 547m / 1,795ft
Nearby Weather01:00 GMT 2017-10-19
Nearby weather at CYKF, WATERLOO located 36.1 nautical miles from PH3
Altimeter: 30.11
Visibility: 9.0 statute miles
Wind: 8 knots (from 190°)
Temp: 12°c / 54°f
Humidity: 71.4%

METAR: CYKF 190100Z AUTO 19008KT 9SM CLR 12/07 A3011 RMK SLP202

(Powered by phpweather)
Nearby VORs <50NM
Nearby NDBs
Runway 08 / 26
Dimensions:547.2 x 61m 1795' x 200'ft
Surface:Grass
Runway 08 [A]Runway 26 [B]
Heading:071°TH 251°TH
Lat:
Lng:
43° 58' 27.83"N
80° 15' 32.19"W
43° 58' 33.62"N
80° 15' 8.84"W
User Notes and Comments
43° 58' 30.72" N / 80° 15' 20.52" W
Distance To
Airport ID:
Nearby Airports
4 Orangeville 5.3 NM
PV2 ESE 105°
(U) Brampton 24.1 NM
CNC3 SE 128°
(U) Guelph 28.6 NM
CNC4 S 173°
(U) Collingwood 33.0 NM
CNY3 N
(C) WATERLOO 36.1 NM
CYKF ( WX ) S 189°
(U) Cambridge Reids Field 36.8 NM
PE4 S 178°
(C) Lester B. Pearson Intl 37.3 NM
CYYZ ( WX ) ESE 123°
VFR Chart
Flight Planning at SkyVector.com